Volver al catálogo

TIANHUI 1-04

ActivoCienciaSSO
NORAD 49049·PAYLOAD·🇨🇳 China

Lanzado Jul 29, 2021 desde Jiuquan Satellite Launch Center

Loading…

Próximos Pases (próximas 24 horas)

TLE

ActualizadoSource: Space-Track

Época: Sep 14, 2026, 15:43 UTC

1 49049U 21067A   26257.65540584  .00003741  00000-0  15929-3 0  9995
2 49049  97.2678 323.0186 0001670 131.3106 228.8276 15.23577598285214

Sigue TIANHUI 1-04 en tiempo real con AllMySat

Download on the App Store